This is the latest recevied weather packets stored in our database for station/object DH9NFM-12. If no packets are shown the sender has not sent any weather packets the latest 1 day(s).
| Time | Temp. | Humidity | Pressure | Rain* | Wind** | Luminosity | Snow |
|---|---|---|---|---|---|---|---|
| 1777958818 | 12.22° C | 10% | - | 0 mm | 0.45 m/s, 90° | - | - |
| 1777956944 | 11.67° C | 10% | - | 0 mm | 0.45 m/s, 45° | - | - |
| 1777956319 | 11.11° C | 10% | - | 0 mm | 0.45 m/s, 270° | - | - |
| 1777955694 | 11.11° C | 10% | - | 0 mm | 0.45 m/s, 45° | - | - |
| 1777955069 | 11.11° C | 10% | - | 0 mm | 0.45 m/s, 225° | - | - |
| 1777954444 | 11.11° C | 10% | - | 0 mm | 0.45 m/s, 45° | - | - |
| 1777953820 | 11.11° C | 10% | - | 0 mm | 0.45 m/s, 270° | - | - |
| 1777951945 | 11.11° C | 10% | - | 0 mm | 0.89 m/s, 45° | - | - |
| 1777951320 | 11.11° C | 10% | - | 0 mm | 0.45 m/s, 45° | - | - |
| 1777950696 | 11.11° C | 10% | - | 0 mm | 0.45 m/s, 45° | - | - |
| 1777950071 | 11.67° C | 10% | - | 0 mm | 0.45 m/s, 135° | - | - |
| 1777949446 | 11.11° C | 10% | - | 0 mm | 0.45 m/s, 45° | - | - |
| 1777948821 | 11.11° C | 10% | - | 0 mm | 0.45 m/s, 270° | - | - |
| 1777948196 | 11.67° C | 10% | - | 0 mm | 0.45 m/s, 45° | - | - |
| 1777945072 | 12.22° C | 10% | - | 0 mm | 0.45 m/s, 45° | - | - |
| 1777943823 | 12.78° C | 10% | - | 0 mm | 0.45 m/s, 45° | - | - |
| 1777943198 | 12.78° C | 10% | - | 0 mm | 0.45 m/s, 0° | - | - |
| 1777941948 | 12.78° C | 10% | - | 0 mm | 0.45 m/s, 45° | - | - |
| 1777941323 | 13.33° C | 10% | - | 0 mm | 0.45 m/s, 45° | - | - |
| 1777940699 | 13.33° C | 10% | - | 0 mm | 0.89 m/s, 45° | - | - |
| 1777940074 | 13.33° C | 10% | - | 0 mm | 0.45 m/s, 45° | - | - |
| 1777939449 | 13.33° C | 10% | - | 0 mm | 0.45 m/s, 135° | - | - |
| 1777938824 | 13.33° C | 10% | - | 0 mm | 0.89 m/s, 45° | - | - |
| 1777938199 | 13.33° C | 10% | - | 0 mm | 0.89 m/s, 45° | - | - |
| 1777936950 | 13.89° C | 10% | - | 0 mm | 0.89 m/s, 45° | - | - |
* Rain latest hour (hover to see other rain measurements)
** Current wind speed in m/s (hover to see current wind gust speed)